Stations météo

réclame
Mon MeteoGroup
Capo Mele, Italie (16153): Température de l'air & dewpoint: 18.10.2018 07:00:00 - 24.10.2018 07:00:00 (CEST)Capo Mele, Italie (16153): Vitesse du vent: 18.10.2018 07:00:00 - 24.10.2018 07:00:00 (CEST)Capo Mele, Italie (16153): Direction du vent: 18.10.2018 07:00:00 - 24.10.2018 07:00:00 (CEST)Capo Mele, Italie (16153): reduced air pressure: 18.10.2018 07:00:00 - 24.10.2018 07:00:00 (CEST)Capo Mele, Italie (16153): visibility: 18.10.2018 07:00:00 - 24.10.2018 07:00:00 (CEST)Capo Mele, Italie (16153): Ensoleillement: 18.10.2018 07:00:00 - 24.10.2018 07:00:00 (CEST)
Date & Time tt [°C] td [°C] ff [km/h] ff [knt] dd ppp [hPa] vv [km] sd [min]
24.10.2018 07:00:00 15,3 10,3 0 0 N 1016,3 50 -
24.10.2018 06:00:00 15,5 11,5 5 3 E 1016,7 50 -
24.10.2018 05:00:00 16,0 12,2 4 2 NE 1017,1 50 -
24.10.2018 04:00:00 15,9 12,1 0 0 N 1017,5 50 -
24.10.2018 03:00:00 16,3 10,4 5 3 ENE 1018,0 50 -
24.10.2018 02:00:00 17,1 10,7 0 0 N 1018,0 50 -
24.10.2018 01:00:00 17,4 8,8 0 0 N 1018,8 50 -
24.10.2018 00:00:00 17,1 9,0 0 0 N 1019,4 50 -
23.10.2018 23:00:00 17,1 9,8 5 3 NE 1019,7 50 -
23.10.2018 22:00:00 17,3 9,2 0 0 N 1019,7 50 -
23.10.2018 21:00:00 17,9 7,6 0 0 N 1020,0 50 -
23.10.2018 20:00:00 18,2 12,4 5 3 SSW 1020,0 40 -
23.10.2018 19:00:00 18,4 11,7 11 6 S 1020,2 30 48
23.10.2018 18:00:00 20,2 9,7 15 8 SSW 1020,4 40 60
23.10.2018 17:00:00 21,4 10,0 13 7 SSW 1020,8 40 60
23.10.2018 16:00:00 21,8 8,7 9 5 S 1021,7 40 60
23.10.2018 15:00:00 22,2 10,0 8 4 S 1021,7 35 60
23.10.2018 14:00:00 22,2 10,1 8 4 SSW 1022,7 35 60
23.10.2018 13:00:00 23,0 7,5 8 4 SW 1023,0 35 60
23.10.2018 12:00:00 23,2 5,6 5 3 SSW 1023,2 35 60
23.10.2018 11:00:00 21,0 4,1 5 3 NE 1023,4 20 60
23.10.2018 10:00:00 19,4 3,1 8 4 NNE 1023,1 35 54
23.10.2018 09:00:00 17,2 1,2 4 2 NNE 1022,7 30 0
23.10.2018 08:00:00 16,8 0,4 8 4 E 1022,4 40 -
23.10.2018 07:00:00 16,8 0,9 0 0 N 1022,3 40 -
23.10.2018 06:00:00 16,8 0,9 0 0 N 1022,3 40 -
23.10.2018 05:00:00 16,8 0,9 0 0 N 1022,4 20 -
23.10.2018 04:00:00 17,0 -0,2 4 2 E 1022,4 40 -
23.10.2018 03:00:00 16,8 0,0 4 2 E 1022,3 40 -
23.10.2018 02:00:00 16,8 0,9 9 5 E 1022,0 40 -
23.10.2018 01:00:00 16,8 0,9 9 5 ENE 1021,8 40 -
23.10.2018 00:00:00 16,8 1,7 8 4 ENE 1021,7 40 -
22.10.2018 23:00:00 16,8 1,3 8 4 ENE 1021,3 40 -
22.10.2018 22:00:00 17,0 1,4 8 4 NE 1021,2 40 -
22.10.2018 21:00:00 17,0 0,6 9 5 NNE 1021,1 40 -
22.10.2018 20:00:00 17,6 1,6 13 7 NNE 1020,0 50 -
22.10.2018 19:00:00 19,8 2,2 9 5 NNE 1019,0 30 60
22.10.2018 18:00:00 20,8 2,6 13 7 NNE 1018,6 30 60
22.10.2018 17:00:00 21,1 3,8 9 5 NNE 1017,9 30 60
22.10.2018 16:00:00 20,9 4,0 22 12 NE 1017,5 30 60
22.10.2018 15:00:00 20,8 5,2 22 12 NE 1018,4 30 60
22.10.2018 14:00:00 21,2 6,0 22 12 NE 1019,3 30 60
22.10.2018 13:00:00 19,4 4,7 18 10 ENE 1020,4 30 60
22.10.2018 12:00:00 18,8 4,9 22 12 NE 1020,4 30 60
22.10.2018 11:00:00 18,0 4,6 22 12 NE 1020,2 30 60
22.10.2018 10:00:00 16,0 4,4 15 8 NE 1020,8 30 36
22.10.2018 09:00:00 14,2 3,7 28 15 NE 1019,7 30 0
22.10.2018 08:00:00 14,0 4,9 28 15 E 1019,4 25 -
22.10.2018 07:00:00 14,8 6,6 34 18 ESE 1019,1 20 -
22.10.2018 06:00:00 16,0 7,7 29 16 S 1020,0 20 -
22.10.2018 05:00:00 16,0 6,2 28 15 S 1020,1 20 -
22.10.2018 04:00:00 16,0 7,7 18 10 SSE 1020,2 20 -
22.10.2018 03:00:00 17,8 7,8 18 10 S 1020,0 20 -
22.10.2018 02:00:00 18,2 8,7 22 12 S 1019,9 20 -
22.10.2018 01:00:00 18,0 10,6 22 12 S 1019,9 20 -
22.10.2018 00:00:00 18,4 11,2 34 18 SSE 1018,9 20 -
21.10.2018 23:00:00 18,2 10,3 28 15 S 1017,9 20 -
21.10.2018 22:00:00 17,8 11,4 18 10 S 1017,2 20 -
21.10.2018 21:00:00 18,0 15,1 0 0 N 1016,8 25 -
21.10.2018 20:00:00 18,3 14,4 8 4 E 1016,4 25 -
21.10.2018 19:00:00 19,2 14,9 8 4 E 1015,6 25 42
21.10.2018 18:00:00 20,7 14,1 15 8 E 1015,8 25 60
21.10.2018 17:00:00 20,8 14,2 15 8 E 1015,9 25 60
21.10.2018 16:00:00 22,3 14,2 13 7 E 1016,1 25 60
21.10.2018 15:00:00 22,3 15,4 9 5 E 1017,2 25 60
21.10.2018 14:00:00 22,0 14,1 15 8 E 1018,4 25 60
21.10.2018 13:00:00 21,8 14,0 13 7 E 1018,9 25 60
21.10.2018 12:00:00 21,8 14,2 4 2 NE 1019,5 25 60
21.10.2018 11:00:00 21,2 13,6 4 2 NE 1019,6 25 60
21.10.2018 10:00:00 19,2 10,0 4 2 NNE 1019,8 25 30
21.10.2018 09:00:00 19,0 10,5 4 2 NNE 1019,8 25 0
21.10.2018 08:00:00 18,2 10,1 5 3 NNE 1020,2 25 -
21.10.2018 07:00:00 18,2 10,3 5 3 NNE 1020,9 30 -
21.10.2018 06:00:00 19,0 10,5 5 3 NNE 1021,0 30 -
21.10.2018 05:00:00 19,0 10,8 5 3 NNE 1021,5 30 -
21.10.2018 04:00:00 19,0 10,8 8 4 NE 1022,0 30 -
21.10.2018 03:00:00 - - - - - - - -
21.10.2018 02:00:00 19,0 8,4 8 4 NE 1022,5 30 -
21.10.2018 01:00:00 19,0 8,4 5 3 NNE 1022,9 30 -
21.10.2018 00:00:00 19,4 8,7 8 4 NNE 1022,9 30 -
20.10.2018 23:00:00 19,6 9,2 5 3 NNE 1022,8 30 -
20.10.2018 22:00:00 20,0 11,5 5 3 NE 1022,5 30 -
20.10.2018 21:00:00 20,0 11,0 5 3 NNE 1022,2 30 -
20.10.2018 20:00:00 19,4 12,9 0 0 N 1022,0 30 -
20.10.2018 19:00:00 20,0 13,0 0 0 N 1021,9 30 36
20.10.2018 18:00:00 22,4 13,5 8 4 NNE 1021,9 30 60
20.10.2018 17:00:00 22,8 9,9 0 0 N 1021,8 30 60
20.10.2018 16:00:00 22,2 10,0 0 0 N 1022,1 30 60
20.10.2018 15:00:00 23,0 11,1 0 0 N 1022,5 30 60
20.10.2018 14:00:00 22,8 11,2 0 0 N 1022,6 40 60
20.10.2018 13:00:00 23,0 11,7 0 0 N 1022,9 40 60
20.10.2018 12:00:00 22,8 10,9 0 0 N 1022,7 40 60
20.10.2018 11:00:00 22,0 9,9 0 0 N 1022,7 40 60
20.10.2018 10:00:00 20,0 8,4 0 0 N 1022,1 35 42
20.10.2018 09:00:00 19,0 7,7 8 4 NNE 1021,6 30 0
20.10.2018 08:00:00 19,4 7,2 4 2 NNE 1020,9 25 -
20.10.2018 07:00:00 19,6 7,7 5 3 NNE 1020,5 30 -
20.10.2018 06:00:00 18,8 7,6 5 3 NNE 1020,1 30 -
20.10.2018 05:00:00 19,0 7,8 0 0 N 1020,0 20 -
20.10.2018 04:00:00 19,0 7,7 0 0 N 1020,1 35 -
20.10.2018 03:00:00 19,6 8,9 0 0 N 1020,1 35 -
20.10.2018 02:00:00 19,6 8,9 0 0 N 1019,9 35 -
20.10.2018 01:00:00 19,6 9,2 0 0 N 1019,8 35 -
20.10.2018 00:00:00 19,8 9,7 0 0 N 1019,8 35 -
19.10.2018 23:00:00 20,2 10,0 0 0 N 1019,7 35 -
19.10.2018 22:00:00 20,4 9,3 5 3 NNE 1019,0 30 -
19.10.2018 21:00:00 21,2 10,4 5 3 NNE 1018,6 30 -
19.10.2018 20:00:00 20,4 9,9 13 7 NE 1017,8 20 -
19.10.2018 19:00:00 21,0 10,2 15 8 NE 1017,4 20 42
19.10.2018 18:00:00 23,8 12,8 13 7 NE 1017,0 20 60
19.10.2018 17:00:00 24,2 12,2 15 8 NE 1016,7 20 60
19.10.2018 16:00:00 23,8 12,5 15 8 NE 1016,6 20 60
19.10.2018 15:00:00 25,0 11,6 9 5 NE 1016,5 20 60
19.10.2018 14:00:00 25,0 11,9 11 6 NE 1017,1 20 60
19.10.2018 13:00:00 24,2 11,5 11 6 NE 1017,3 20 60
19.10.2018 12:00:00 23,8 11,5 13 7 NE 1017,4 20 60
19.10.2018 11:00:00 23,0 10,4 11 6 NE 1017,3 20 60
19.10.2018 10:00:00 21,2 9,8 11 6 NE 1016,8 20 60
19.10.2018 09:00:00 20,0 9,3 15 8 NE 1016,0 10 36
19.10.2018 08:00:00 19,6 9,5 18 10 NE 1015,1 30 -
19.10.2018 07:00:00 19,8 10,0 13 7 NNE 1014,6 30 -
19.10.2018 06:00:00 19,0 10,8 9 5 ENE 1015,1 30 -
19.10.2018 05:00:00 18,6 10,9 5 3 NE 1015,2 20 -
19.10.2018 04:00:00 18,6 11,9 5 3 NE 1014,7 30 -
19.10.2018 03:00:00 19,1 12,1 9 5 ENE 1015,5 30 -
19.10.2018 02:00:00 19,5 10,2 5 3 ENE 1015,5 30 -
19.10.2018 01:00:00 19,6 10,3 5 3 ENE 1015,0 30 -
19.10.2018 00:00:00 19,7 11,0 5 3 NNE 1015,1 30 -
18.10.2018 23:00:00 20,2 9,7 5 3 NE 1014,7 30 -
18.10.2018 22:00:00 20,2 9,2 9 5 NE 1014,4 30 -
18.10.2018 21:00:00 20,4 9,0 9 5 ENE 1013,9 30 -
18.10.2018 20:00:00 20,6 9,2 5 3 NNE 1013,7 35 -
18.10.2018 19:00:00 20,8 9,1 8 4 NNE 1013,5 30 36
18.10.2018 18:00:00 22,2 10,0 8 4 N 1013,2 35 60
18.10.2018 17:00:00 23,8 10,8 8 4 NNE 1013,3 20 60
18.10.2018 16:00:00 24,8 11,7 11 6 NNE 1013,5 35 60
18.10.2018 15:00:00 23,2 11,6 15 8 NNE 1014,2 35 6
18.10.2018 14:00:00 22,2 11,9 8 4 NNE 1014,5 35 0
18.10.2018 13:00:00 21,2 11,5 11 6 NNE 1014,8 25 0
18.10.2018 12:00:00 21,2 11,5 11 6 NNE 1014,9 20 24
18.10.2018 11:00:00 20,6 12,1 15 8 NE 1014,8 20 12
18.10.2018 10:00:00 18,6 10,4 15 8 NNE 1014,9 15 0
18.10.2018 09:00:00 18,4 10,0 13 7 NNE 1014,7 15 0
18.10.2018 08:00:00 18,7 10,3 15 8 E 1014,9 20 -
18.10.2018 07:00:00 18,7 10,3 8 4 E 1014,7 20 -

tt = Température de l'air
td = dewpoint
ff = Vitesse du vent
dd = Direction du vent
ppp = reduced air pressure
vv = visibility
sd = Ensoleillement

stations d'obs. à proximité